Location: Lecco
(45.8566°N, 9.3977°E)
Time: 12:10:49
(UTC+02:00)

deb Explorer IX - All Passes

Search period start: 07 August 2020 00:00
Search period end: 17 August 2020 00:00
Orbit: 542 x 1102 km, 38.8° (Epoch: 06 August)

Date Brightness Start Highest point End Pass type
(mag) Time Alt. Az. Time Alt. Az. Time Alt. Az.
07 Aug - 15:22:48 10° SSW 15:25:52 16° SSE 15:28:42 10° ESE daylight
07 Aug - 17:07:51 10° SW 17:12:01 30° S 17:15:47 10° ESE daylight
07 Aug - 18:54:21 10° WSW 18:58:13 30° S 19:01:49 10° SE daylight
07 Aug - 20:41:50 10° WSW 20:44:10 15° SSW 20:46:27 10° S daylight
08 Aug - 14:59:32 10° SSW 15:02:52 17° SSE 15:05:56 10° ESE daylight
08 Aug - 16:44:43 10° SW 16:49:03 31° S 16:52:56 10° ESE daylight
08 Aug - 18:31:18 10° WSW 18:35:16 30° S 18:38:56 10° SE daylight
08 Aug - 20:18:52 10° WSW 20:21:13 15° SSW 20:23:31 10° S daylight
09 Aug - 14:36:14 10° SSW 14:39:51 18° SSE 14:43:08 10° ESE daylight
09 Aug - 16:21:33 10° SW 16:26:04 32° S 16:30:05 10° ESE daylight
09 Aug - 18:08:13 10° WSW 18:12:19 31° S 18:16:04 10° SE daylight
09 Aug - 19:55:49 10° WSW 19:58:15 15° SSW 20:00:36 10° S daylight
10 Aug - 14:12:55 10° SSW 14:16:48 19° SSE 14:20:19 10° ESE daylight
10 Aug - 15:58:21 10° SW 16:03:05 33° S 16:07:13 10° ESE daylight
10 Aug - 17:45:05 10° WSW 17:49:21 32° S 17:53:11 10° SE daylight
10 Aug - 19:32:46 10° WSW 19:35:17 15° SSW 19:37:42 10° S daylight
11 Aug - 13:49:36 10° SSW 13:53:45 20° SSE 13:57:29 10° ESE daylight
11 Aug - 15:35:07 10° SW 15:40:03 34° S 15:44:20 10° ESE daylight
11 Aug - 17:21:55 10° WSW 17:26:21 32° S 17:30:17 10° SE daylight
11 Aug - 19:09:39 10° WSW 19:12:17 15° SSW 19:14:48 10° S daylight
12 Aug - 13:26:16 10° SSW 13:30:39 21° SSE 13:34:37 10° ESE daylight
12 Aug - 15:11:52 10° WSW 15:17:01 35° S 15:21:27 10° ESE daylight
12 Aug - 16:58:44 10° WSW 17:03:21 33° S 17:07:24 10° SE daylight
12 Aug - 18:46:30 10° WSW 18:49:17 16° SSW 18:51:54 10° S daylight
13 Aug - 13:02:55 10° SSW 13:07:33 22° SSE 13:11:44 10° ESE daylight
13 Aug - 14:48:36 10° WSW 14:53:56 36° S 14:58:33 10° ESE daylight
13 Aug - 16:35:31 10° WSW 16:40:19 34° S 16:44:30 10° SE daylight
13 Aug - 18:23:19 10° WSW 18:26:16 16° SSW 18:29:01 10° S daylight
14 Aug - 12:39:33 10° SSW 12:44:25 23° SSE 12:48:48 10° ESE daylight
14 Aug - 14:25:18 10° WSW 14:30:51 38° S 14:35:37 10° ESE daylight
14 Aug - 16:12:16 10° WSW 16:17:16 35° S 16:21:36 10° SE daylight
14 Aug - 18:00:06 10° WSW 18:03:13 17° SSW 18:06:07 10° SSE daylight
15 Aug - 12:16:11 10° SSW 12:21:15 24° SSE 12:25:52 10° ESE daylight
15 Aug - 14:01:59 10° WSW 14:07:43 39° S 14:12:41 10° ESE daylight
15 Aug - 15:48:59 10° WSW 15:54:11 36° S 15:58:40 10° SE daylight
15 Aug - 17:36:50 10° WSW 17:40:10 17° SSW 17:43:13 10° SSE daylight
16 Aug - 11:52:48 10° SSW 11:58:05 24° SSE 12:02:52 10° ESE daylight
16 Aug - 13:38:39 10° WSW 13:44:35 40° S 13:49:43 10° ESE daylight
16 Aug - 15:25:41 10° WSW 15:31:04 37° S 15:35:43 10° SE daylight
16 Aug - 17:13:34 10° WSW 17:17:05 18° SSW 17:20:19 10° SSE daylight
